Flag for Canada Weather past 2 weeks in Langley, British Columbia, Canada

Now
75 °F

Mild.


Feels Like: 77 °F
Forecast: 48 / 78 °F
Wind: 6 mph from South

Location: P. Meadows Coastal Station

Current Time: Sep 16, 2014 at 2:39:35 PM

Latest Report: Sep 16, 2014 at 2:00 PM


Visibility: N/A

Pressure: 29.85 "Hg

Humidity: 40%

Dew point: 49 °F

Location of LangleyLocation

Historic Weather in Langley — Graph

°F

Langley temperature yesterday

Maximum temperature yesterday: 87 °F (at 4:00 PM)
Minimum temperature yesterday: 47 °F (at 7:00 AM)
Average temperature yesterday: 65 °F

Past Weeks' High & Low Weather Summary

 TemperatureHumidityPressure
High87 °F (Sep 15, 4:00 PM)100% (Sep 15, 7:00 AM)30.34 "Hg (Sep 15, 7:00 AM)
Low43 °F (Sep 12, 7:00 AM)17% (Sep 10, 5:00 PM)29.78 "Hg (Sep 7, 8:00 PM)
Average63 °F68%30.00 "Hg
* Reported Sep 1 1:00 PM — Sep 16 1:00 PM, Langley, Weather by CustomWeather, © 2014

Note: Actual official high and low records may vary slightly from our data, if they occured in-between our weather recording intervals... More about our weather records

Advertising

Langley weather history for previous 24 hours

 ConditionsComfort  
Time TempWeatherWind HumidityBarometerVisibility
1:00 PM
Sep 16
76 °FMild.3 mph45%29.85 "HgN/A
12:00 PM73 °FMild.3 mph45%29.87 "HgN/A
11:00 AM70 °FMild.2 mph51%29.87 "HgN/A
10:00 AM65 °FMild.3 mph58%29.87 "HgN/A
9:00 AM58 °FCool.1 mph84%29.87 "HgN/A
8:00 AM54 °FCool.1 mph89%29.87 "HgN/A
7:00 AM52 °FCool.1 mph95%29.87 "HgN/A
6:00 AM50 °FCool.1 mph97%29.85 "HgN/A
5:00 AM51 °FCool.No wind95%29.84 "HgN/A
4:00 AM52 °FCool.No wind94%29.83 "HgN/A
3:00 AM52 °FCool.1 mph94%29.83 "HgN/A
2:00 AM52 °FCool.No wind92%29.84 "HgN/A
1:00 AM53 °FCool.1 mph92%29.83 "HgN/A
12:00 AM56 °FCool.No wind88%29.83 "HgN/A
11:00 PM
Sep 15
57 °FCool.1 mph82%29.81 "HgN/A
10:00 PM59 °FCool.No wind77%29.80 "HgN/A
9:00 PM64 °FMild.2 mph67%29.80 "HgN/A
8:00 PM69 °FMild.2 mph57%29.79 "HgN/A
7:00 PM76 °FMild.1 mph42%29.78 "HgN/A
6:00 PM80 °FPleasantly warm.5 mph37%29.79 "HgN/A
5:00 PM84 °FPleasantly warm.7 mph34%29.80 "HgN/A
4:00 PM87 °FPleasantly warm.3 mph27%29.81 "HgN/A
3:00 PM86 °FPleasantly warm.3 mph19%29.83 "HgN/A
2:00 PM82 °FPleasantly warm.2 mph24%29.85 "HgN/A
Weather by CustomWeather, © 2014

See weather overviewHow to use our weather pages